When you browse on this site, cookies collect data to enhance your experience and personalize the content and advertising you see.
Visit our Privacy Policy to learn more. By continuing to use the site, you agree to this use of cookies and data.
  • în România
  • Lista ţărilor
  • Pe 7 zile
  • Temperatura apei
  • Meteo pe hartă
  • Widget-uri
  • user-avatar
    Intrare

    Meteo pe oră la Liverpool

    Astăzi, 25 Mai, Luni

    Timp Temperatura Precipitaţii Vânt Presiune Umiditate
    00:00 +10°C° 0 mm 2 m/s 773 mmHg 82%
    01:00 +9°C° 0 mm 2 m/s 774 mmHg 81%
    02:00 +9°C° 0 mm 2 m/s 774 mmHg 81%
    03:00 +8°C° 0 mm 2 m/s 774 mmHg 80%
    04:00 +9°C° 0 mm 2 m/s 774 mmHg 77%
    05:00 +10°C° 0 mm 2 m/s 774 mmHg 74%
    06:00 +10°C° 0 mm 2 m/s 774 mmHg 71%
    07:00 +13°C° 0 mm 2 m/s 774 mmHg 64%
    08:00 +15°C° 0 mm 2 m/s 774 mmHg 56%
    09:00 +17°C° 0 mm 2 m/s 774 mmHg 49%
    10:00 +18°C° 0 mm 2 m/s 774 mmHg 46%
    11:00 +19°C° 0 mm 2 m/s 774 mmHg 43%
    12:00 +20°C° 0 mm 3 m/s 774 mmHg 41%
    13:00 +20°C° 0 mm 3 m/s 773 mmHg 41%
    14:00 +20°C° 0 mm 3 m/s 773 mmHg 41%
    15:00 +20°C° 0 mm 4 m/s 773 mmHg 41%
    16:00 +19°C° 0 mm 4 m/s 773 mmHg 44%
    17:00 +18°C° 0 mm 3 m/s 773 mmHg 47%
    18:00 +18°C° 0 mm 3 m/s 773 mmHg 49%
    19:00 +16°C° 0 mm 3 m/s 774 mmHg 53%
    20:00 +14°C° 0 mm 2 m/s 774 mmHg 58%
    21:00 +13°C° 0 mm 2 m/s 774 mmHg 62%
    22:00 +13°C° 0 mm 2 m/s 774 mmHg 63%
    23:00 +13°C° 0 mm 2 m/s 774 mmHg 63%

    Mâine, 26 Mai, Marţi

    Timp Temperatura Precipitaţii Vânt Presiune Umiditate
    00:00 +13°C° 0 mm 2 m/s 774 mmHg 64%
    01:00 +13°C° 0 mm 2 m/s 774 mmHg 66%
    02:00 +13°C° 0 mm 2 m/s 774 mmHg 67%
    03:00 +13°C° 0 mm 1 m/s 774 mmHg 68%
    04:00 +13°C° 0 mm 2 m/s 774 mmHg 69%
    05:00 +14°C° 0 mm 2 m/s 775 mmHg 70%
    06:00 +14°C° 0 mm 2 m/s 775 mmHg 71%
    07:00 +15°C° 0 mm 2 m/s 775 mmHg 71%
    08:00 +15°C° 0 mm 2 m/s 775 mmHg 72%
    09:00 +16°C° 0 mm 2 m/s 775 mmHg 72%
    10:00 +16°C° 0 mm 3 m/s 775 mmHg 74%
    11:00 +16°C° 0 mm 3 m/s 775 mmHg 75%
    12:00 +17°C° 0 mm 3 m/s 775 mmHg 77%
    13:00 +17°C° 0 mm 3 m/s 775 mmHg 75%
    14:00 +17°C° 0 mm 3 m/s 775 mmHg 74%
    15:00 +17°C° 0 mm 3 m/s 775 mmHg 72%
    16:00 +17°C° 0 mm 3 m/s 775 mmHg 71%
    17:00 +17°C° 0 mm 3 m/s 775 mmHg 71%
    18:00 +16°C° 0 mm 3 m/s 775 mmHg 71%
    19:00 +14°C° 0 mm 3 m/s 775 mmHg 72%
    20:00 +14°C° 0 mm 2 m/s 776 mmHg 74%
    21:00 +12°C° 0 mm 2 m/s 776 mmHg 76%
    22:00 +12°C° 0 mm 2 m/s 776 mmHg 78%
    23:00 +10°C° 0 mm 2 m/s 776 mmHg 80%

    Poimâine, 27 Mai, Miercuri

    Timp Temperatura Precipitaţii Vânt Presiune Umiditate
    00:00 +10°C° 0 mm 3 m/s 776 mmHg 82%
    01:00 +10°C° 0 mm 2 m/s 776 mmHg 83%
    02:00 +9°C° 0 mm 2 m/s 777 mmHg 84%
    03:00 +9°C° 0 mm 2 m/s 777 mmHg 86%
    04:00 +10°C° 0 mm 2 m/s 777 mmHg 83%
    05:00 +12°C° 0 mm 2 m/s 777 mmHg 80%
    06:00 +12°C° 0 mm 2 m/s 777 mmHg 78%
    07:00 +14°C° 0 mm 2 m/s 777 mmHg 71%
    08:00 +15°C° 0 mm 2 m/s 777 mmHg 64%
    09:00 +16°C° 0 mm 3 m/s 777 mmHg 58%
    10:00 +17°C° 0 mm 3 m/s 777 mmHg 55%
    11:00 +18°C° 0 mm 3 m/s 777 mmHg 52%
    12:00 +18°C° 0 mm 3 m/s 776 mmHg 49%
    13:00 +18°C° 0 mm 3 m/s 776 mmHg 48%
    14:00 +18°C° 0 mm 3 m/s 776 mmHg 48%
    15:00 +18°C° 0 mm 3 m/s 776 mmHg 47%
    16:00 +18°C° 0 mm 3 m/s 776 mmHg 50%
    17:00 +17°C° 0 mm 3 m/s 776 mmHg 52%
    18:00 +16°C° 0 mm 2 m/s 775 mmHg 55%
    19:00 +15°C° 0 mm 2 m/s 775 mmHg 60%
    20:00 +13°C° 0 mm 1 m/s 776 mmHg 64%
    21:00 +12°C° 0 mm 1 m/s 776 mmHg 69%
    22:00 +11°C° 0 mm 1 m/s 776 mmHg 69%
    23:00 +11°C° 0 mm 1 m/s 775 mmHg 70%

    28 Mai, Joi

    Timp Temperatura Precipitaţii Vânt Presiune Umiditate
    00:00 +10°C° 0 mm 0 m/s 775 mmHg 70%
    01:00 +10°C° 0 mm 1 m/s 775 mmHg 70%
    02:00 +10°C° 0 mm 1 m/s 775 mmHg 69%
    03:00 +9°C° 0 mm 2 m/s 774 mmHg 69%
    04:00 +10°C° 0 mm 2 m/s 774 mmHg 70%
    05:00 +12°C° 0 mm 2 m/s 774 mmHg 71%
    06:00 +13°C° 0 mm 2 m/s 774 mmHg 72%
    07:00 +15°C° 0 mm 2 m/s 774 mmHg 68%
    08:00 +17°C° 0 mm 2 m/s 773 mmHg 65%
    09:00 +19°C° 0 mm 2 m/s 773 mmHg 61%
    10:00 +20°C° 0 mm 2 m/s 773 mmHg 57%
    11:00 +21°C° 0 mm 2 m/s 772 mmHg 52%
    12:00 +23°C° 0 mm 1 m/s 772 mmHg 47%
    13:00 +23°C° 0 mm 2 m/s 772 mmHg 48%
    14:00 +24°C° 0 mm 2 m/s 771 mmHg 49%
    15:00 +24°C° 0 mm 2 m/s 771 mmHg 49%
    16:00 +23°C° 0 mm 2 m/s 770 mmHg 53%
    17:00 +23°C° 0 mm 2 m/s 770 mmHg 56%
    18:00 +21°C° 0 mm 2 m/s 770 mmHg 60%
    19:00 +20°C° 0 mm 2 m/s 770 mmHg 66%
    20:00 +19°C° 0 mm 1 m/s 770 mmHg 71%
    21:00 +16°C° 0 mm 1 m/s 770 mmHg 77%
    22:00 +16°C° 0 mm 2 m/s 770 mmHg 78%
    23:00 +15°C° 0 mm 2 m/s 770 mmHg 79%

    29 Mai, Vineri

    Timp Temperatura Precipitaţii Vânt Presiune Umiditate
    00:00 +14°C° 0 mm 2 m/s 770 mmHg 80%
    01:00 +14°C° 0 mm 2 m/s 769 mmHg 81%
    02:00 +13°C° 0 mm 2 m/s 769 mmHg 82%
    03:00 +12°C° 0 mm 3 m/s 769 mmHg 83%
    04:00 +12°C° 0 mm 3 m/s 769 mmHg 80%
    05:00 +13°C° 0 mm 3 m/s 769 mmHg 77%
    06:00 +13°C° 0 mm 3 m/s 768 mmHg 74%
    07:00 +16°C° 0 mm 3 m/s 768 mmHg 69%
    08:00 +17°C° 0 mm 3 m/s 768 mmHg 64%
    09:00 +19°C° 0 mm 3 m/s 768 mmHg 59%
    10:00 +19°C° 0 mm 3 m/s 768 mmHg 57%
    11:00 +20°C° 0 mm 3 m/s 767 mmHg 56%
    12:00 +21°C° 0 mm 3 m/s 767 mmHg 54%
    13:00 +21°C° 0 mm 3 m/s 767 mmHg 55%
    14:00 +21°C° 0 mm 3 m/s 767 mmHg 56%
    15:00 +21°C° 0 mm 3 m/s 766 mmHg 57%
    16:00 +21°C° 0 mm 3 m/s 766 mmHg 60%
    17:00 +20°C° 0 mm 3 m/s 766 mmHg 63%
    18:00 +20°C° 0 mm 3 m/s 766 mmHg 65%
    19:00 +19°C° 0 mm 3 m/s 766 mmHg 70%
    20:00 +17°C° 0 mm 3 m/s 766 mmHg 75%
    21:00 +16°C° 0 mm 3 m/s 767 mmHg 80%
    22:00 +14°C° 0 mm 3 m/s 767 mmHg 81%
    23:00 +14°C° 0 mm 4 m/s 767 mmHg 82%

    30 Mai, Sâmbătă

    Timp Temperatura Precipitaţii Vânt Presiune Umiditate
    00:00 +13°C° 0 mm 4 m/s 767 mmHg 83%
    01:00 +13°C° 0 mm 4 m/s 767 mmHg 83%
    02:00 +12°C° 0 mm 4 m/s 767 mmHg 82%
    03:00 +12°C° 0 mm 4 m/s 767 mmHg 81%
    04:00 +12°C° 0 mm 4 m/s 767 mmHg 79%
    05:00 +12°C° 0 mm 4 m/s 767 mmHg 78%
    06:00 +12°C° 0 mm 3 m/s 767 mmHg 76%
    07:00 +13°C° 0 mm 3 m/s 767 mmHg 69%
    08:00 +16°C° 0 mm 3 m/s 767 mmHg 63%
    09:00 +17°C° 0 mm 4 m/s 767 mmHg 57%
    10:00 +18°C° 0 mm 3 m/s 767 mmHg 55%
    11:00 +19°C° 0 mm 3 m/s 767 mmHg 54%
    12:00 +20°C° 0 mm 3 m/s 767 mmHg 52%
    13:00 +20°C° 0 mm 3 m/s 767 mmHg 52%
    14:00 +21°C° 0 mm 3 m/s 767 mmHg 52%
    15:00 +21°C° 0 mm 3 m/s 766 mmHg 52%
    16:00 +20°C° 0 mm 3 m/s 766 mmHg 55%
    17:00 +20°C° 0 mm 2 m/s 766 mmHg 58%
    18:00 +20°C° 0 mm 2 m/s 766 mmHg 62%
    19:00 +19°C° 0 mm 2 m/s 766 mmHg 64%
    20:00 +18°C° 0 mm 2 m/s 767 mmHg 67%
    21:00 +17°C° 0 mm 2 m/s 767 mmHg 70%
    22:00 +16°C° 0 mm 2 m/s 767 mmHg 72%
    23:00 +14°C° 0 mm 3 m/s 767 mmHg 73%
    Arată mai mult